Other Surface Observations
Issued by NWS

Current Version | Previous Version | Text Only | Print | Product List | Glossary On
Versions: 1 2 3 4 5 6 7 8 9 10 11 12 13 14 15 16 17 18 19 20 21 22 23 24 25 26 27 28 29 30 31 32 33 34 35 36 37 38 39 40 41 42 43 44 45 46 47 48 49 50
000
SXUS52 KTAE 172018
OSOTAE
OSOTAE
North Florida/South Alabama/Southwest Georgia Weather Roundup
National Weather Service Tallahassee Florida
300 PM EST TUE JAN 17 2017

Note: "fair" indicates few or no clouds below 12,000 feet with no
significant weather and/or obstructions to visibility.

!FLZ017-115-028-034-025-172100
...North Florida...

CITY           SKY/WX    TMP DP  RH WIND       PRES   REMARKS
TALLAHASSEE    CLOUDY    74  64  71 S8        30.18F
APALACHICOLA   MOSUNNY   72  68  87 SE9       30.18F
PERRY          CLOUDY    75  60  60 SW8       30.21S
CROSS CITY     MOSUNNY   75  59  57 SW10      30.21S
JACKSONVILLE   CLOUDY    77  54  44 W7        30.19F
$$

!FLZ112-006-005-002-011-172100
...Florida Panhandle...

CITY           SKY/WX    TMP DP  RH WIND       PRES   REMARKS
MARIANNA       CLOUDY    78  62  57 SW7       30.15F
BONIFAY        CLOUDY    75  64  68 S5        30.16F
PANAMA CITY NW FAIR      75  67  76 SE9       30.15F
TYNDALL AFB    DRIZZLE   72  66  83 S13       30.16F
TYND DRONE APT MOCLDY    72  68  88 S13       30.16F
DE FUNIAK SPR  FAIR      74  63  68 S9        30.17S
EGLIN AFB      MOSUNNY   75  66  73 S8        30.15F
DESTIN         MOSUNNY   74  67  78 SE7       30.15F
HURLBURT       PTSUNNY   74  62  66 SE9       30.14F
CRESTVIEW      MOSUNNY   78  61  55 SW9       30.16F
PENSACOLA      MOSUNNY   76  66  71 S12       30.15S
$$

!ALZ063-066-172100
...South Alabama...

CITY           SKY/WX    TMP DP  RH WIND       PRES   REMARKS
DOTHAN         MOSUNNY   76  62  62 SW9       30.19F
OZARK CAIRNS   MOSUNNY   74  62  64 S9        30.16F
FT RUCKER HELI MOSUNNY   76  60  57 SW12      30.15F
RUCKER HELI 3  NOT AVBL
RUCKER HELI 2  FAIR      75  61  60 S8        30.15F
FLORALA APT    MOSUNNY   76  60  57 SW10      30.16F
ANDALUSIA      PTSUNNY   80  61  52 S9        30.15F
TROY           CLOUDY    76  59  55 SW13      30.16S
EUFALA         FAIR      77  58  51 S7        30.14F
MOBILE         PTSUNNY   76  65  68 S13       30.15S
$$

!GAZ120>161-172100
...Southwest and South Central Georgia...

CITY           SKY/WX    TMP DP  RH WIND       PRES   REMARKS
THOMASVILLE    PTSUNNY   77  64  65 SW9       30.19F
BAINBRIDGE     MOSUNNY   77  61  57 SW6       30.18S
MOODY AFB      PTSUNNY   77  58  50 SW12      30.16F
VALDOSTA       PTSUNNY   76  58  53 S7        30.19F
MOULTRIE       MOSUNNY   77  59  53 S8        30.18F
BLAKELY        MOSUNNY   79  59  50 W6        30.17F
ALBANY         MOSUNNY   77  57  50 SW8       30.18F
TIFTON         PTSUNNY   76  60  56 SW7       30.17F
FITZGERALD     FAIR      77  61  56 SW8G16    30.19F
CORDELE        NOT AVBL
AMERICUS       FAIR      75  52  43 SW9       30.18F
HOMERVILLE     FAIR      79  59  50 SW10      30.19F
$$

!GMZ750-755-770-775-172100
...Coastal and Buoy Obs...

STATION/POSITION TIME  TEMP    WIND        PRES    VSBY  WAVE
                       AIR SEA DIR/SP/G                  HT/PER
                 (UTC) (F)     (DEG/KT/KT) (MB)    (MI)  (FT/S)
KEATON BEACH     2000   67     170/  9/  9 1022.5F
CEDAR KEY        2000   70     250/  1/  2 1023.4F
C TOWER          2000   68     150/ 12/ 12 1022.2F
APALACHICOLA BUO 1850   73 72  150/ 10/ 12 1022.2          3/ 5
PANAMA CITY BUOY 1950   76 75              1021.3F         4/ 6
MOBILE BUOY      NOT AVBL
ORANGE BCH AL BU 1950   69 68   60/  4/  4 1020.8R         3/ 7
$$




USA.gov is the U.S. government's official web portal to all federal, state and local government web resources and services.